Starlink 2381

operational
NORAD ID: 47800 Int'l Des: 2021-018 Owner: SPXS Country: US Constellation: starlink
LEOCIRCULARSTARLINK_TYPE

About Starlink 2381

Description loading...

Live Position

Loading 3D Globe...

Upcoming Passes

Altitude History

Altitude vs Time

uPlot chart will show altitude changes over time

Two-Line Element Set

1 47800U 21018P 25302.85182274 -.00000484 00000-0 -13589-4 0 9998
2 47800 53.0536 98.9720 0001969 94.4195 265.7019 15.06386635257158
Epoch: Oct 29, 2025 • Age: 11 hours

Current Status

Altitude 558.3 km
Velocity 7.58 km/s
Sub-Earth Point -32.74°S, 162.19°E
Launch Date Mar 11, 2021
Age 4.6 years
Type internet

Technical Details

Classification Payload
Mass 260.00 kg
Dry Mass 248.00 kg
Total Mass 260.00 kg
Length 0.20 m
Diameter 2.80 m
Span 9.00 m
Shape Box + pan
Manufacturer SPXS
Bus Type Starlink
Phase Status In Orbit
Owner/State SPXS/US

Large Constellations

Loading constellations...